Flag for Nicaragua Weather past 2 weeks in Masaya, Nicaragua

Now
82 °F

Passing clouds.


Feels Like: 86 °F
Forecast: 71 / 88 °F
Wind: 12 mph from East

Location: Managua A. C. Sandino

Current Time: Feb 1, 2015 at 8:26:32 PM

Latest Report: Feb 1, 2015 at 7:00 PM


Visibility: N/A

Pressure: 29.83 "Hg

Humidity: 66%

Dew point: 70 °F

Location of MasayaLocation

Historic Weather in Masaya — Graph

°F

Masaya temperature yesterday

Maximum temperature yesterday: 90 °F (at 3:00 PM)
Minimum temperature yesterday: 72 °F (at 5:00 AM)
Average temperature yesterday: 80 °F

Past Weeks' High & Low Weather Summary

 TemperatureHumidityPressure
High91 °F (Jan 18, 3:00 PM)94% (Jan 24, 6:00 AM)30.01 "Hg (Jan 24, 6:00 AM)
Low68 °F (Jan 28, 6:00 AM)27% (Jan 28, 1:00 PM)29.77 "Hg (Jan 25, 4:00 PM)
Average81 °F60%29.89 "Hg
* Reported Jan 17 7:00 PM — Feb 1 7:00 PM, Masaya, Weather by CustomWeather, © 2014

Note: Actual official high and low records may vary slightly from our data, if they occured in-between our weather recording intervals... More about our weather records

Advertising

Masaya weather history for previous 24 hours

 ConditionsComfort  
Time TempWeatherWind HumidityBarometerVisibility
7:00 PM
Feb 1
82 °FPassing clouds.12 mph66%29.83 "HgN/A
6:00 PM84 °FPassing clouds.12 mph62%29.80 "HgN/A
5:00 PM86 °FPassing clouds.14 mph62%29.80 "HgN/A
4:00 PM90 °FPassing clouds.21 mph55%29.77 "HgN/A
3:00 PM90 °FPassing clouds.14 mph55%29.77 "HgN/A
2:00 PM91 °FPassing clouds.16 mph49%29.83 "HgN/A
1:00 PM88 °FPassing clouds.23 mph55%29.86 "HgN/A
12:00 PM86 °FPassing clouds.12 mph62%29.89 "HgN/A
11:00 AM86 °FPassing clouds.21 mph59%29.92 "HgN/A
10:00 AM84 °FPassing clouds.12 mph62%29.92 "HgN/A
9:00 AM82 °FPassing clouds.14 mph62%29.95 "HgN/A
8:00 AM79 °FPassing clouds.12 mph65%29.92 "HgN/A
7:00 AM77 °FPassing clouds.12 mph65%29.92 "HgN/A
6:00 AM75 °FPassing clouds.14 mph69%29.89 "HgN/A
5:00 AM73 °FPassing clouds.7 mph78%29.89 "HgN/A
2:00 AM73 °FPassing clouds.7 mph74%29.89 "HgN/A
1:00 AM73 °FPassing clouds.5 mph74%29.92 "HgN/A
12:00 AM75 °FPassing clouds.7 mph69%29.92 "HgN/A
11:00 PM
Jan 31
77 °FPassing clouds.9 mph74%29.92 "HgN/A
10:00 PM77 °FPassing clouds.5 mph69%29.92 "HgN/A
9:00 PM79 °FPassing clouds.7 mph65%29.92 "HgN/A
8:00 PM79 °FPassing clouds.9 mph65%29.89 "HgN/A
Weather by CustomWeather, © 2014

See weather overviewHow to use our weather pages